Cook, MN

12:51 PM CST on February 18, 2018 (GMT -0600)
Cook Municipal

Weather History for KCQM - August, 2013

Change the Weather History Date:

Monday, August 12, 2013

  Actual Average Record
Temperature  
Mean Temperature 57 °F -  
Max Temperature 68 °F 71 °F 84 °F (2015)
Min Temperature 44 °F 50 °F 37 °F (2004)
Degree Days  
Heating Degree Days 8    
Growing Degree Days 7 (Base 50)    
Moisture  
Dew Point 49 °F    
Average Humidity 77    
Maximum Humidity 100    
Minimum Humidity 43    
Precipitation  
Precipitation 0.00 in - - ()
Sea Level Pressure  
Sea Level Pressure 30.05 in    
Wind  
Wind Speed 2 mph (North)    
Max Wind Speed 10 mph    
Max Gust Speed -    
Visibility 9 miles    
Events      
Averages and records for this station are not official NWS values.
T = Trace of Precipitation, MM = Missing Value Source: NWS Daily Summary

Daily Weather History Graph

Daily Weather History Graph

Search for Another Location

Airport or City:

Trip Planner

Search our weather history database for the weather conditions in past years. The results will help you decide how hot, cold, wet, or windy it might be!

Date:

Astronomy

Aug. 12, 2013 Rise Set
Actual Time 6:02 AM CDT 8:28 PM CDT
Civil Twilight 5:27 AM CDT 9:02 PM CDT
Nautical Twilight 4:44 AM CDT 9:45 PM CDT
Astronomical Twilight 3:54 AM CDT 10:34 PM CDT
Moon 12:24 PM CDT (8/12) 10:48 PM CDT (8/12)
Length of Visible Light 15h 34m
Length of Day
14h 25m
Waxing Crescent, 31% of the Moon is Illuminated
Aug 12
Waxing Crescent
Aug 14
First Quarter
Aug 20
Full
Aug 28
Last Quarter
Sep 5
New

Hourly Weather History & Observations

Time (CDT) Temp. Dew Point Humidity Pressure Visibility Wind Dir Wind Speed Gust Speed Precip Events Conditions
12:16 AM 55.4 °F 53.6 °F 94% 30.03 in 10.0 mi Calm Calm - N/A   Scattered Clouds
12:37 AM 51.8 °F 51.8 °F 100% 30.03 in 10.0 mi Calm Calm - N/A   Clear
12:56 AM 51.8 °F 50.0 °F 94% 30.03 in 10.0 mi Calm Calm - N/A   Clear
1:16 AM 51.8 °F 50.0 °F 94% 30.03 in 10.0 mi Calm Calm - N/A   Clear
1:37 AM 50.0 °F 48.2 °F 94% 30.03 in 10.0 mi Calm Calm - N/A   Clear
1:56 AM 51.8 °F 51.8 °F 100% 30.03 in 10.0 mi Calm Calm - N/A   Clear
2:04 AM 50.0 °F 48.2 °F 94% 30.03 in 10.0 mi Calm Calm - N/A   Clear
2:36 AM 48.2 °F 48.2 °F 100% 30.03 in 10.0 mi Calm Calm - N/A   Clear
2:56 AM 48.2 °F 48.2 °F 100% 30.03 in 10.0 mi Calm Calm - N/A   Clear
3:17 AM 48.2 °F 48.2 °F 100% 30.02 in 10.0 mi Calm Calm - N/A   Clear
3:36 AM 48.2 °F 48.2 °F 100% 30.02 in 10.0 mi Calm Calm - N/A   Clear
3:56 AM 46.4 °F 46.4 °F 100% 30.02 in 10.0 mi Calm Calm - N/A   Clear
4:17 AM 50.0 °F 48.2 °F 94% 30.01 in 10.0 mi Calm Calm - N/A   Clear
4:36 AM 51.8 °F 50.0 °F 94% 30.02 in 10.0 mi Calm Calm - N/A   Clear
4:57 AM 48.2 °F 48.2 °F 100% 30.01 in 2.5 mi Calm Calm - N/A   Scattered Clouds
5:16 AM 48.2 °F 48.2 °F 100% 30.01 in 5.0 mi Calm Calm - N/A   Scattered Clouds
5:36 AM 48.2 °F 46.4 °F 93% 30.01 in 2.5 mi Calm Calm - N/A   Scattered Clouds
5:57 AM 46.4 °F 46.4 °F 100% 30.01 in 1.5 mi Calm Calm - N/A   Mostly Cloudy
6:16 AM 46.4 °F 46.4 °F 100% 30.02 in 1.2 mi Calm Calm - N/A   Mostly Cloudy
6:36 AM 46.4 °F 46.4 °F 100% 30.01 in 7.0 mi Calm Calm - N/A   Clear
6:57 AM 48.2 °F 48.2 °F 100% 30.02 in 4.0 mi Calm Calm - N/A   Clear
7:16 AM 48.2 °F 48.2 °F 100% 30.02 in 10.0 mi Calm Calm - N/A   Clear
7:36 AM 51.8 °F 51.8 °F 100% 30.02 in 10.0 mi Calm Calm - N/A   Clear
7:57 AM 53.6 °F 53.6 °F 100% 30.02 in 10.0 mi West 4.6 mph - N/A   Clear
8:16 AM 53.6 °F 51.8 °F 94% 30.02 in 10.0 mi WNW 3.5 mph - N/A   Clear
8:36 AM 55.4 °F 53.6 °F 94% 30.02 in 10.0 mi Calm Calm - N/A   Clear
8:57 AM 57.2 °F 55.4 °F 94% 30.02 in 10.0 mi Calm Calm - N/A   Clear
9:16 AM 59.0 °F 55.4 °F 88% 30.02 in 10.0 mi NNW 3.5 mph - N/A   Clear
9:37 AM 60.8 °F 55.4 °F 82% 30.02 in 10.0 mi Calm Calm - N/A   Scattered Clouds
9:56 AM 62.6 °F 55.4 °F 77% 30.02 in 10.0 mi NNW 3.5 mph - N/A   Scattered Clouds
10:16 AM 62.6 °F 55.4 °F 77% 30.03 in 10.0 mi North 5.8 mph - N/A   Scattered Clouds
10:37 AM 64.4 °F 53.6 °F 68% 30.03 in 10.0 mi North 9.2 mph - N/A   Scattered Clouds
10:56 AM 64.4 °F 53.6 °F 68% 30.03 in 10.0 mi North 3.5 mph - N/A   Mostly Cloudy
11:16 AM 64.4 °F 53.6 °F 68% 30.04 in 10.0 mi NNW 8.1 mph - N/A   Mostly Cloudy
11:36 AM 64.4 °F 53.6 °F 68% 30.04 in 10.0 mi NNE 5.8 mph - N/A   Mostly Cloudy
11:56 AM 64.4 °F 53.6 °F 68% 30.05 in 10.0 mi NW 8.1 mph - N/A   Mostly Cloudy
12:17 PM 66.2 °F 51.8 °F 60% 30.05 in 10.0 mi North 8.1 mph - N/A   Scattered Clouds
12:36 PM 66.2 °F 51.8 °F 60% 30.05 in 10.0 mi North 6.9 mph - N/A   Scattered Clouds
12:56 PM 64.4 °F 50.0 °F 59% 30.06 in 10.0 mi NNW 8.1 mph - N/A   Mostly Cloudy
1:17 PM 66.2 °F 51.8 °F 60% 30.07 in 10.0 mi North 6.9 mph - N/A   Scattered Clouds
1:36 PM 66.2 °F 51.8 °F 60% 30.07 in 10.0 mi NNE 6.9 mph - N/A   Scattered Clouds
1:56 PM 68.0 °F 50.0 °F 52% 30.07 in 10.0 mi North 8.1 mph - N/A   Scattered Clouds
2:16 PM 66.2 °F 48.2 °F 52% 30.08 in 10.0 mi North 8.1 mph - N/A   Mostly Cloudy
2:36 PM 66.2 °F 46.4 °F 49% 30.07 in 10.0 mi NNE 10.4 mph - N/A   Mostly Cloudy
2:57 PM 66.2 °F 48.2 °F 52% 30.08 in 10.0 mi NNE 5.8 mph - N/A   Scattered Clouds
3:16 PM 68.0 °F 46.4 °F 46% 30.08 in 10.0 mi NNW 5.8 mph - N/A   Scattered Clouds
3:37 PM 66.2 °F 46.4 °F 49% 30.08 in 10.0 mi North 4.6 mph - N/A   Scattered Clouds
3:56 PM 68.0 °F 44.6 °F 43% 30.07 in 10.0 mi North 8.1 mph - N/A   Scattered Clouds
4:16 PM 68.0 °F 46.4 °F 46% 30.07 in 10.0 mi NNE 8.1 mph - N/A   Mostly Cloudy
4:37 PM 66.2 °F 46.4 °F 49% 30.07 in 10.0 mi North 3.5 mph - N/A   Mostly Cloudy
4:56 PM 64.4 °F 46.4 °F 52% 30.08 in 10.0 mi North 4.6 mph - N/A   Mostly Cloudy
5:17 PM 66.2 °F 46.4 °F 49% 30.08 in 10.0 mi North 5.8 mph - N/A   Scattered Clouds
5:37 PM 64.4 °F 44.6 °F 49% 30.08 in 10.0 mi North 3.5 mph - N/A   Scattered Clouds
5:56 PM 66.2 °F 44.6 °F 46% 30.08 in 10.0 mi NNE 5.8 mph - N/A   Clear
6:17 PM 64.4 °F 44.6 °F 49% 30.08 in 10.0 mi North 5.8 mph - N/A   Scattered Clouds
6:37 PM 66.2 °F 44.6 °F 46% 30.08 in 10.0 mi North 5.8 mph - N/A   Scattered Clouds
6:56 PM 64.4 °F 44.6 °F 49% 30.09 in 10.0 mi North 3.5 mph - N/A   Clear
7:17 PM 64.4 °F 44.6 °F 49% 30.08 in 10.0 mi North 4.6 mph - N/A   Mostly Cloudy
7:37 PM 62.6 °F 44.6 °F 52% 30.09 in 10.0 mi Calm Calm - N/A   Mostly Cloudy
7:54 PM 62.6 °F 44.6 °F 52% 30.09 in 10.0 mi Calm Calm - N/A   Mostly Cloudy
8:06 PM 60.8 °F 46.4 °F 59% 30.09 in 10.0 mi Calm Calm - N/A   Mostly Cloudy
8:40 PM 57.2 °F 46.4 °F 67% 30.10 in 10.0 mi Calm Calm - N/A   Clear
8:56 PM 55.4 °F 46.4 °F 72% 30.10 in 10.0 mi Calm Calm - N/A   Clear
9:16 PM 53.6 °F 46.4 °F 77% 30.11 in 10.0 mi Calm Calm - N/A   Clear
9:31 PM 51.8 °F 46.4 °F 82% 30.11 in 10.0 mi Calm Calm - N/A   Clear
10:39 PM 48.2 °F 46.4 °F 93% 30.12 in 10.0 mi Calm Calm - N/A   Clear
10:56 PM 46.4 °F 46.4 °F 100% 30.12 in 10.0 mi Calm Calm - N/A   Clear
11:16 PM 46.4 °F 44.6 °F 93% 30.12 in 10.0 mi Calm Calm - N/A   Scattered Clouds
11:36 PM 46.4 °F 44.6 °F 93% 30.12 in 10.0 mi Calm Calm - N/A   Scattered Clouds
11:57 PM 44.6 °F 44.6 °F 100% 30.13 in 10.0 mi Calm Calm - N/A   Clear